Eugene, OR

5:39 AM PDT on April 19, 2018 (GMT -0700)
Mahlon Sweet

Weather History for KEUG - May, 2014

Change the Weather History Date:

Sunday, May 11, 2014

  Actual Average Record
Temperature  
Mean Temperature 53 °F 54 °F  
Max Temperature 67 °F 66 °F 88 °F (1931)
Min Temperature 39 °F 43 °F 29 °F (1985)
Degree Days  
Heating Degree Days 12 11  
Month to date heating degree days 110 127  
Since 1 July heating degree days 4538 4469  
Cooling Degree Days 0 0  
Month to date cooling degree days 2 0  
Year to date cooling degree days 2 0  
Growing Degree Days 2 (Base 50)    
Moisture  
Dew Point 42 °F    
Average Humidity 71    
Maximum Humidity 96    
Minimum Humidity 45    
Precipitation  
Precipitation 0.00 in 0.09 in 1.01 in (1937)
Month to date precipitation 1.23 0.99  
Year to date precipitation 20.74 21.61  
Sea Level Pressure  
Sea Level Pressure 30.30 in    
Wind  
Wind Speed 6 mph (North)    
Max Wind Speed 13 mph    
Max Gust Speed 17 mph    
Visibility 8 miles    
Events Fog    
T = Trace of Precipitation, MM = Missing Value Source: NWS Daily Summary

Daily Weather History Graph

Daily Weather History Graph

Search for Another Location

Airport or City:

Astronomy

May. 11, 2014 Rise Set
Actual Time 5:50 AM PDT 8:28 PM PDT
Civil Twilight 5:17 AM PDT 9:01 PM PDT
Nautical Twilight 4:36 AM PDT 9:43 PM PDT
Astronomical Twilight 3:49 AM PDT 10:30 PM PDT
Moon 5:23 PM PDT (5/11) 4:06 AM PDT (5/11)
Length of Visible Light 15h 43m
Length of Day
14h 37m
Waxing Gibbous, 90% of the Moon is Illuminated
May 11
Waxing Gibbous
May 14
Full
May 21
Last Quarter
May 28
New
Jun 5
First Quarter

Hourly Weather History & Observations

Time (PDT) Temp. Windchill Dew Point Humidity Pressure Visibility Wind Dir Wind Speed Gust Speed Precip Events Conditions
12:54 AM 46.0 °F - 43.0 °F 89% 30.32 in 10.0 mi Calm Calm - N/A   Clear
1:54 AM 43.0 °F 41.3 °F 41.0 °F 93% 30.32 in 10.0 mi South 3.5 mph - N/A   Mostly Cloudy
2:54 AM 44.1 °F - 41.0 °F 89% 30.33 in 10.0 mi Calm Calm - N/A   Overcast
3:37 AM 42.1 °F 40.2 °F 39.9 °F 92% 30.32 in 2.0 mi NNE 3.5 mph - N/A   Mostly Cloudy
3:52 AM 42.8 °F 41.1 °F 39.2 °F 87% 30.32 in 10.0 mi NNW 3.5 mph - N/A   Mostly Cloudy
3:54 AM 42.1 °F 40.2 °F 39.9 °F 92% 30.33 in 10.0 mi NNW 3.5 mph - N/A   Mostly Cloudy
4:04 AM 41.0 °F 39.0 °F 39.0 °F 93% 30.32 in 1.8 mi NNE 3.5 mph - N/A   Mostly Cloudy
4:08 AM 39.9 °F 37.8 °F 37.9 °F 93% 30.32 in 0.8 mi NNE 3.5 mph - N/A   Mostly Cloudy
4:50 AM 39.2 °F 37.0 °F 37.4 °F 93% 30.31 in 1.8 mi East 3.5 mph - N/A   Clear
4:52 AM 39.2 °F 37.0 °F 37.4 °F 93% 30.31 in 3.0 mi East 3.5 mph - N/A   Clear
4:54 AM 39.0 °F 36.8 °F 37.9 °F 96% 30.32 in 8.0 mi East 3.5 mph - N/A   Clear
5:19 AM 39.0 °F - 37.0 °F 93% 30.31 in 2.5 mi Calm Calm - N/A   Partly Cloudy
5:22 AM 39.0 °F 36.8 °F 37.0 °F 93% 30.31 in 1.2 mi WNW 3.5 mph - N/A   Scattered Clouds
5:24 AM 39.0 °F 36.8 °F 37.0 °F 93% 30.31 in 0.8 mi NW 3.5 mph - N/A   Mist
5:44 AM 39.9 °F 35.8 °F 39.0 °F 97% 30.31 in 1.0 mi NW 5.8 mph - N/A   Mostly Cloudy
5:48 AM 41.0 °F 37.1 °F 39.2 °F 93% 30.31 in 2.0 mi NW 5.8 mph - N/A   Mostly Cloudy
5:54 AM 41.0 °F 38.0 °F 39.2 °F 93% 30.31 in 9.0 mi NW 4.6 mph - N/A Fog Patches of Fog
6:54 AM 41.0 °F - 39.9 °F 96% 30.33 in 10.0 mi Calm Calm - N/A   Scattered Clouds
7:54 AM 48.0 °F - 45.0 °F 89% 30.34 in 10.0 mi Calm Calm - N/A   Partly Cloudy
8:54 AM 52.0 °F - 45.0 °F 77% 30.34 in 10.0 mi North 3.5 mph - N/A   Mostly Cloudy
9:49 AM 53.6 °F - 46.4 °F 77% 30.33 in 10.0 mi North 6.9 mph - N/A   Scattered Clouds
9:54 AM 54.0 °F - 46.0 °F 75% 30.33 in 10.0 mi North 6.9 mph - N/A   Scattered Clouds
10:54 AM 57.9 °F - 48.0 °F 70% 30.32 in 10.0 mi North 5.8 mph - N/A   Scattered Clouds
11:54 AM 59.0 °F - 46.0 °F 62% 30.31 in 10.0 mi NNW 8.1 mph - N/A   Scattered Clouds
12:54 PM 62.1 °F - 48.0 °F 60% 30.30 in 10.0 mi North 9.2 mph - N/A   Partly Cloudy
1:54 PM 64.0 °F - 46.0 °F 52% 30.28 in 10.0 mi North 10.4 mph - N/A   Partly Cloudy
2:54 PM 66.0 °F - 44.1 °F 45% 30.27 in 10.0 mi NNW 10.4 mph - N/A   Scattered Clouds
3:54 PM 66.0 °F - 45.0 °F 47% 30.26 in 10.0 mi NNW 9.2 mph - N/A   Partly Cloudy
4:54 PM 66.9 °F - 46.0 °F 47% 30.25 in 10.0 mi North 9.2 mph - N/A   Scattered Clouds
5:54 PM 64.9 °F - 48.0 °F 54% 30.24 in 10.0 mi NNE 11.5 mph - N/A   Partly Cloudy
6:54 PM 63.0 °F - 46.9 °F 56% 30.23 in 10.0 mi NNE 11.5 mph - N/A   Partly Cloudy
7:54 PM 57.9 °F - 46.9 °F 67% 30.23 in 10.0 mi North 8.1 mph - N/A   Partly Cloudy
8:54 PM 53.1 °F - 46.0 °F 77% 30.23 in 10.0 mi North 5.8 mph - N/A   Partly Cloudy
9:54 PM 51.1 °F - 44.1 °F 77% 30.25 in 10.0 mi WNW 4.6 mph - N/A   Partly Cloudy
10:54 PM 48.9 °F - 43.0 °F 80% 30.25 in 10.0 mi NW 4.6 mph - N/A   Clear
11:54 PM 46.9 °F - 42.1 °F 83% 30.28 in 10.0 mi Calm Calm - N/A   Clear